Flag for U.S.A. Weather past 2 weeks in Portsmouth, Virginia, U.S.A.

Now
46 °F

Scattered clouds.


Feels Like: 39 °F
Forecast: 43 / 54 °F
Wind: 18 mph from Northeast

Location: Norfolk Naval Air Station


UV Index: 0 (Low)

Visibility: 10 mi


Pressure: 30.58 "Hg

Humidity: 63%

Dew point: 34 °F

Location of PortsmouthLocation

Historic Weather in Portsmouth

°F

Portsmouth temperature yesterday

Maximum temperature yesterday: 49 °F (at 3:59 PM)
Minimum temperature yesterday: 37 °F (at 4:59 AM)
Average temperature yesterday: 43 °F

Past Weeks' High & Low Weather Summary

 TemperatureHumidityPressure
High84 °F (Apr 4, 5:59 PM)93% (Apr 4, 3:59 AM)30.58 "Hg (Apr 4, 3:59 AM)
Low37 °F (Apr 16, 4:59 AM)22% (Apr 4, 5:59 PM)29.57 "Hg (Apr 8, 9:59 AM)
Average61 °F61%30.03 "Hg
* Reported Apr 2 7:59 AM — Apr 17 7:59 AM, Portsmouth, Weather by CustomWeather, © 2014

Note: Actual official high and low records may vary slightly from our data, if they occured in-between our weather recording intervals... More about our weather records

Advertising

Historic Weather Conditions — Data for Previous 24 hours

 ConditionsComfort  
Time TempWeatherWind HumidityBarometerVisibility
7:59 AM
Apr 17
46 °FScattered clouds.18 mph63%30.58 "Hg10 mi
6:59 AM44 °FPassing clouds.15 mph65%30.55 "Hg10 mi
5:59 AM43 °FPassing clouds.12 mph65%30.53 "Hg10 mi
4:59 AM43 °FPassing clouds.14 mph62%30.53 "Hg10 mi
3:59 AM43 °FPassing clouds.13 mph62%30.52 "Hg10 mi
2:59 AM43 °FPassing clouds.15 mph60%30.50 "Hg10 mi
1:59 AM43 °FClear.12 mph65%30.51 "Hg10 mi
12:59 AM44 °FClear.13 mph60%30.51 "Hg10 mi
11:59 PM
Apr 16
44 °FClear.10 mph58%30.51 "Hg10 mi
10:59 PM43 °FClear.8 mph62%30.51 "Hg10 mi
9:59 PM43 °FClear.8 mph62%30.51 "Hg10 mi
8:59 PM44 °FClear.7 mph60%30.49 "Hg10 mi
7:59 PM44 °FPassing clouds.8 mph60%30.47 "Hg10 mi
6:59 PM46 °FScattered clouds.14 mph54%30.45 "Hg10 mi
5:59 PM48 °FPassing clouds.20 mph46%30.43 "Hg10 mi
4:59 PM48 °FPassing clouds.20 mph44%30.42 "Hg10 mi
3:59 PM49 °FSunny.23 mph39%30.42 "Hg10 mi
2:59 PM48 °FPassing clouds.21 mph43%30.42 "Hg10 mi
1:59 PM47 °FPassing clouds.20 mph46%30.42 "Hg10 mi
12:59 PM47 °FPassing clouds.18 mph44%30.42 "Hg10 mi
11:59 AM46 °FPassing clouds.16 mph42%30.41 "Hg10 mi
10:59 AM44 °FPassing clouds.17 mph43%30.41 "Hg10 mi
9:59 AM42 °FPassing clouds.17 mph47%30.39 "Hg10 mi
Weather by CustomWeather, © 2014

See weather overview